PBO Station Position Time Series. Reference Frame : NAM14
Format Version,1.1.1
4-character ID,FOXG
Station name,Fox_Airport_2_GP
Begin Date, 2015-04-02
End Date, 2023-06-26
Release Date, 2023-06-27
Reference position, 34.7339124822 North Latitude, -118.2405002086 East Longitude, 688.81480 meters elevation,
Date, North (mm), East (mm), Vertical (mm), North Std. Deviation (mm), East Std. Deviation (mm),              Vertical Std. Deviation (mm), Quality,
2015-04-02,0.00, 0.00, 0.00, 1.87, 1.56, 7.11, repro,
2015-04-03,-1.15, 1.66, -1.52, 1.91, 1.59, 7.28, repro,
2015-04-04,-2.26, 0.90, 1.54, 1.91, 1.59, 7.35, repro,
2015-04-05,-2.03, 1.87, -0.75, 1.91, 1.60, 7.35, repro,
2015-04-06,-0.86, 0.55, 1.67, 1.89, 1.57, 7.24, repro,
2015-04-07,-4.52, -1.65, 4.27, 1.91, 1.60, 7.38, repro,
2015-04-08,-4.94, 1.56, 7.08, 1.95, 1.63, 7.43, repro,
2015-04-09,-0.96, 0.51, 1.84, 1.89, 1.55, 7.15, repro,
2015-04-10,-0.51, 0.92, 6.63, 1.93, 1.59, 7.29, repro,
2015-04-11,-2.24, 1.29, 4.67, 1.93, 1.63, 7.44, repro,
2015-04-12,0.53, 1.17, 7.36, 1.87, 1.56, 7.19, repro,
2015-04-13,0.39, 1.82, 0.20, 1.93, 1.58, 7.35, repro,
2015-04-14,-1.85, 0.73, 1.43, 1.94, 1.57, 7.32, repro,
2015-04-15,-1.04, 0.56, 6.44, 1.96, 1.62, 7.40, repro,
2015-04-16,0.57, 1.18, 1.08, 1.95, 1.62, 7.40, repro,
2015-04-17,-2.01, 1.22, 5.30, 1.91, 1.58, 7.29, repro,
2015-04-18,-0.31, 0.04, 1.93, 1.92, 1.57, 7.31, repro,
2015-04-19,-1.27, 0.67, 3.51, 1.96, 1.58, 7.41, repro,
2015-04-20,-2.75, -0.05, 5.91, 1.96, 1.57, 7.34, repro,
2015-04-21,-1.84, 0.05, 5.19, 1.93, 1.55, 7.23, repro,
2015-04-22,-1.21, 1.02, 3.00, 1.94, 1.56, 7.25, repro,
2015-04-23,-1.75, 0.59, 2.48, 1.89, 1.54, 7.16, repro,
2015-04-24,-1.61, 1.03, 7.59, 1.90, 1.52, 7.13, repro,
2015-04-25,0.72, 1.28, -5.60, 1.92, 1.54, 7.23, repro,
2015-04-26,-2.51, 2.23, 0.80, 1.95, 1.54, 7.26, repro,
2015-04-27,-1.20, 0.53, -2.49, 1.89, 1.52, 7.08, repro,
2015-04-28,0.32, 0.94, -3.05, 1.89, 1.54, 7.15, repro,
2015-04-29,-1.61, 1.69, 6.03, 1.90, 1.52, 7.09, repro,
2015-04-30,0.36, 1.10, 5.51, 1.94, 1.59, 7.32, repro,
2015-05-01,-0.98, 0.10, 9.12, 1.94, 1.60, 7.37, repro,
2015-05-02,-0.41, 0.88, 4.35, 1.91, 1.55, 7.24, repro,
2015-05-03,0.27, 0.60, 1.50, 1.90, 1.54, 7.21, repro,
2015-05-04,0.22, 0.77, -1.94, 1.89, 1.53, 7.11, repro,
2015-05-05,-0.94, 0.55, -5.92, 1.90, 1.55, 7.20, repro,
2015-05-06,0.77, 1.04, -0.92, 1.89, 1.55, 7.21, repro,
2015-05-07,-0.02, 1.14, 0.58, 1.90, 1.55, 7.24, repro,
2015-05-08,-0.72, 0.82, 3.13, 1.90, 1.55, 7.20, repro,
2015-05-09,0.02, 0.94, -2.94, 1.89, 1.53, 7.13, repro,
2015-05-10,-0.58, 0.22, -7.54, 1.90, 1.54, 7.18, repro,
2015-05-11,-0.54, 0.95, -4.63, 1.90, 1.56, 7.26, repro,
2015-05-12,-1.21, 1.92, 4.06, 1.97, 1.56, 7.47, repro,
2015-05-13,-4.26, -1.28, -7.33, 2.00, 1.58, 7.56, repro,
2015-05-14,1.15, 0.86, -2.13, 1.89, 1.53, 7.13, repro,
2015-05-15,-1.47, 0.11, -11.70, 1.90, 1.54, 7.17, repro,
2015-05-16,-2.82, 1.80, 2.86, 1.90, 1.55, 7.20, repro,
2015-05-17,-0.01, 0.83, 3.80, 1.90, 1.56, 7.28, repro,
2015-05-18,-2.21, -0.87, -1.12, 1.90, 1.55, 7.23, repro,
2015-05-19,0.88, 1.20, -9.40, 1.96, 1.56, 7.36, repro,
2015-05-20,-0.28, 0.63, -3.71, 1.88, 1.53, 7.08, repro,
2015-05-21,-0.51, 0.51, -4.54, 1.88, 1.53, 7.09, repro,
2015-05-22,-1.47, -0.48, 0.26, 1.89, 1.54, 7.16, repro,
2015-05-23,-0.24, 0.16, -9.05, 1.90, 1.55, 7.20, repro,
2015-05-24,-0.82, 0.55, -4.86, 1.89, 1.54, 7.12, repro,
2015-05-25,0.32, -0.43, -2.75, 1.87, 1.53, 7.05, repro,
2015-05-26,0.65, -0.03, -6.73, 1.88, 1.54, 7.10, repro,
2015-05-27,1.65, 1.22, 1.29, 1.89, 1.56, 7.19, repro,
2015-05-28,-0.01, 0.24, -2.20, 1.95, 1.58, 7.48, repro,
2015-05-29,-0.75, 0.30, -4.89, 1.87, 1.54, 7.05, repro,
2015-05-30,1.00, 0.38, 1.28, 1.88, 1.55, 7.10, repro,
2015-05-31,-1.38, 0.41, -1.23, 1.88, 1.54, 7.08, repro,
2015-06-01,-2.15, -0.05, -5.30, 1.89, 1.55, 7.13, repro,
2015-06-02,0.03, 0.76, -1.38, 1.90, 1.55, 7.17, repro,
2015-06-03,-0.50, -0.70, -3.84, 1.90, 1.56, 7.19, repro,
2015-06-04,-0.49, -0.77, 4.33, 1.87, 1.54, 7.05, repro,
2015-06-05,1.37, -0.77, -10.30, 1.89, 1.60, 7.14, repro,
2015-06-06,-1.41, -0.77, -1.30, 1.87, 1.54, 7.03, repro,
2015-06-07,-0.52, 0.01, -0.44, 1.89, 1.55, 7.15, repro,
2015-06-08,0.13, -0.37, -4.31, 1.92, 1.56, 7.20, repro,
2015-06-09,-1.82, -0.54, 1.86, 1.88, 1.55, 7.07, repro,
2015-06-10,-1.53, 0.90, -3.34, 1.89, 1.56, 7.13, repro,
2015-06-11,-2.74, 1.02, -1.21, 1.97, 1.60, 7.19, repro,
2015-06-12,-1.88, 0.61, -7.23, 1.88, 1.56, 7.14, repro,
2015-06-13,-0.46, 0.27, 6.03, 1.90, 1.58, 7.24, repro,
2015-06-14,-1.35, 1.18, -10.62, 1.88, 1.56, 7.09, repro,
2015-06-15,0.23, 0.67, 1.51, 1.90, 1.59, 7.22, repro,
2015-06-16,1.09, 0.35, -5.50, 1.87, 1.56, 7.09, repro,
2015-06-17,-0.64, -0.32, -0.43, 1.91, 1.60, 7.14, repro,
2015-06-18,-1.93, 1.83, -4.12, 1.94, 1.65, 7.43, repro,
2015-06-19,0.02, 0.83, 0.88, 1.90, 1.60, 7.23, repro,
2015-06-20,0.43, 0.53, 7.33, 1.87, 1.55, 7.03, repro,
2015-06-21,-1.10, -0.26, 4.57, 1.85, 1.54, 6.99, repro,
2015-06-22,0.53, 0.80, 2.11, 1.87, 1.54, 6.99, repro,
2015-06-23,0.14, -0.51, 2.20, 1.98, 1.59, 7.31, repro,
2015-06-24,-0.29, 0.13, 1.93, 1.93, 1.58, 7.21, repro,
2015-06-25,-2.10, -0.24, 2.63, 2.00, 1.64, 7.44, repro,
2015-06-26,-0.79, -0.55, 2.08, 1.92, 1.55, 7.15, repro,
2015-06-27,-0.65, -0.70, -5.50, 1.89, 1.54, 7.02, repro,
2015-06-28,-0.30, 0.82, -1.13, 1.89, 1.55, 7.02, repro,
2015-06-29,1.05, -0.12, 4.15, 1.88, 1.56, 7.09, repro,
2015-06-30,1.05, 2.58, -0.80, 1.94, 1.57, 7.28, repro,
2015-07-01,-1.27, 2.04, 6.15, 1.94, 1.57, 7.36, repro,
2015-07-02,-1.88, -0.31, -5.73, 1.93, 1.56, 7.24, repro,
2015-07-03,-3.44, -0.47, -2.15, 1.88, 1.54, 6.99, repro,
2015-07-04,-0.02, -1.46, 12.53, 1.87, 1.53, 6.97, repro,
2015-07-05,-0.74, 2.01, -1.33, 1.94, 1.59, 7.25, repro,
2015-07-06,-2.55, -0.73, -4.34, 1.90, 1.56, 7.14, repro,
2015-07-07,-1.00, -0.57, 0.53, 1.87, 1.54, 7.00, repro,
2015-07-08,-0.89, -1.18, -1.50, 1.88, 1.54, 7.00, repro,
2015-07-09,-0.20, 1.05, 7.18, 1.87, 1.53, 6.96, repro,
2015-07-10,0.64, -0.06, 11.22, 1.89, 1.55, 7.05, repro,
2015-07-11,-2.13, -0.05, 2.75, 1.91, 1.59, 7.12, repro,
2015-07-12,-1.53, -0.05, 6.67, 1.86, 1.53, 6.95, repro,
2015-07-13,-1.33, -0.21, 4.69, 1.87, 1.54, 6.98, repro,
2015-07-14,-0.23, 1.53, 5.06, 1.87, 1.54, 6.97, repro,
2015-07-15,-1.16, 0.80, 3.54, 1.91, 1.54, 7.03, repro,
2015-07-16,0.39, 0.31, 10.20, 1.95, 1.63, 7.29, repro,
2015-07-17,-0.70, 1.24, 11.51, 1.88, 1.54, 7.02, repro,
2015-07-18,-0.72, 2.47, 14.19, 1.90, 1.55, 7.04, repro,
2015-07-19,1.33, 0.55, 6.62, 1.86, 1.55, 7.01, repro,
2015-07-20,-2.22, -0.71, 9.25, 1.95, 1.64, 7.29, repro,
2015-07-21,0.34, 0.75, 3.21, 1.90, 1.55, 7.09, repro,
2015-07-22,-1.55, 0.70, 7.18, 1.88, 1.54, 7.00, repro,
2015-07-23,-1.72, 0.09, 7.22, 1.87, 1.54, 6.97, repro,
2015-07-24,-0.74, 0.21, 4.47, 1.88, 1.54, 6.97, repro,
2015-07-25,-2.24, -0.44, 5.96, 1.85, 1.54, 6.91, repro,
2015-07-26,-1.04, 0.09, 7.32, 1.86, 1.55, 6.97, repro,
2015-07-27,0.67, -0.43, 10.46, 1.90, 1.55, 7.05, repro,
2015-07-28,-1.08, 0.66, 10.35, 1.94, 1.56, 7.26, repro,
2015-07-29,-0.05, 1.59, -0.10, 1.94, 1.56, 7.26, repro,
2015-07-30,-1.96, 0.37, 4.39, 1.87, 1.55, 6.96, repro,
2015-07-31,0.24, 0.57, 4.30, 1.88, 1.55, 7.01, repro,
2015-08-01,-2.37, 0.34, 9.96, 1.89, 1.56, 7.05, repro,
2015-08-02,0.57, -0.19, 5.51, 1.88, 1.53, 6.96, repro,
2015-08-03,-1.71, 1.05, 11.29, 1.90, 1.56, 7.09, repro,
2015-08-04,-1.95, 0.26, 9.27, 1.90, 1.59, 7.19, repro,
2015-08-05,-1.63, 0.54, -0.75, 1.89, 1.58, 7.13, repro,
2015-08-06,-1.18, 0.56, 7.46, 1.89, 1.59, 7.15, repro,
2015-08-07,-3.60, 1.37, 7.74, 1.90, 1.58, 7.19, repro,
2015-08-08,-1.82, 0.69, 10.07, 1.94, 1.60, 7.25, repro,
2015-08-09,0.54, 1.05, 8.57, 2.01, 1.65, 7.43, repro,
2015-08-10,0.64, 1.64, 13.87, 1.93, 1.59, 7.20, repro,
2015-08-11,0.36, 0.79, 5.31, 1.91, 1.59, 7.20, repro,
2015-08-12,-0.72, 0.65, 6.67, 1.88, 1.57, 7.08, repro,
2015-08-14,-1.43, -1.09, 6.62, 1.89, 1.56, 7.09, repro,
2015-08-15,-1.75, 0.37, 7.11, 1.89, 1.57, 7.11, repro,
2015-08-16,-0.62, 0.70, 13.08, 1.88, 1.56, 7.08, repro,
2015-08-17,-0.91, 0.68, 11.83, 1.86, 1.54, 6.98, repro,
2015-08-18,-0.94, -0.54, 10.72, 1.85, 1.54, 7.00, repro,
2015-08-19,-0.84, 0.30, 13.36, 1.87, 1.56, 7.07, repro,
2015-08-20,-0.66, -0.62, 13.45, 1.88, 1.56, 7.10, repro,
2015-08-21,0.15, 0.74, 13.20, 1.88, 1.55, 7.08, repro,
2015-08-22,-0.16, 0.26, 7.68, 1.90, 1.56, 7.13, repro,
2015-08-23,-1.04, -1.06, 5.20, 1.86, 1.56, 7.04, repro,
2015-08-24,-1.05, 0.09, 1.73, 1.87, 1.56, 7.10, repro,
2015-08-25,-2.52, 0.24, 4.63, 1.91, 1.61, 7.29, repro,
2015-08-26,-1.97, 0.58, 7.00, 1.89, 1.56, 7.08, repro,
2015-08-27,-0.46, 0.42, 5.81, 1.88, 1.56, 7.07, repro,
2015-08-28,0.47, 0.90, 8.84, 1.87, 1.56, 7.07, repro,
2015-08-29,-0.57, 1.24, 12.28, 1.87, 1.55, 7.07, repro,
2015-08-30,-0.50, -1.15, 14.64, 1.90, 1.62, 7.21, repro,
2015-08-31,-0.58, -0.98, 20.20, 1.90, 1.57, 7.18, repro,
2015-09-01,-1.50, -1.53, 15.55, 1.94, 1.58, 7.23, repro,
2015-09-02,-0.27, -0.72, 13.37, 1.93, 1.57, 7.24, repro,
2015-09-03,-0.14, -1.69, -1.55, 1.89, 1.56, 7.16, repro,
2015-09-04,-0.64, -0.45, 12.60, 1.87, 1.57, 7.14, repro,
2015-09-05,-0.46, -0.56, 5.03, 1.87, 1.57, 7.11, repro,
2015-09-06,-0.17, 1.45, 12.92, 1.87, 1.56, 7.08, repro,
2015-09-07,-2.65, 0.01, 10.38, 1.91, 1.57, 7.14, repro,
2015-09-08,0.25, -0.16, 8.72, 1.93, 1.57, 7.23, repro,
2015-09-09,-1.19, 0.28, 6.76, 2.25, 1.77, 8.40, repro,
2015-09-10,-1.74, 0.83, 9.73, 1.93, 1.58, 7.30, repro,
2015-09-11,-0.41, -0.30, 4.88, 1.97, 1.61, 7.35, repro,
2015-09-12,-1.02, 0.36, 7.83, 1.94, 1.61, 7.34, repro,
2015-09-13,-1.92, 1.99, -0.54, 1.95, 1.65, 7.55, repro,
2015-09-14,-3.08, 0.28, -1.12, 1.97, 1.65, 7.55, repro,
2015-09-15,1.28, -1.32, -9.15, 1.99, 1.65, 7.67, repro,
2015-09-16,-1.31, -0.22, 16.59, 1.94, 1.62, 7.45, repro,
2015-09-17,-0.45, -0.84, 14.19, 1.95, 1.62, 7.44, repro,
2015-09-18,-0.34, -0.55, 7.05, 1.96, 1.61, 7.44, repro,
2015-09-19,-0.47, -0.25, 12.51, 1.93, 1.60, 7.39, repro,
2015-09-20,-1.55, -0.94, 11.97, 1.94, 1.59, 7.38, repro,
2015-09-21,-1.12, -0.60, 9.32, 1.96, 1.62, 7.50, repro,
2015-09-22,-0.38, 0.81, 8.94, 1.95, 1.61, 7.43, repro,
2015-09-23,-0.36, 0.34, 3.33, 1.96, 1.63, 7.50, repro,
2015-09-24,0.23, -0.00, 7.49, 1.97, 1.65, 7.53, repro,
2015-09-25,1.09, -0.09, 2.88, 1.95, 1.61, 7.50, repro,
2015-09-27,-1.04, -2.61, 5.06, 2.03, 1.67, 7.86, repro,
2015-09-28,-1.31, -0.72, -3.08, 2.36, 1.78, 9.15, repro,
2015-09-29,-1.18, -1.07, 5.64, 2.06, 1.68, 7.95, repro,
2015-09-30,-1.36, 0.37, 8.71, 2.14, 1.73, 8.16, repro,
2015-10-01,0.51, -1.08, 6.15, 2.15, 1.73, 8.32, repro,
2015-10-02,-2.51, 0.64, 6.68, 2.18, 1.80, 8.54, repro,
2015-10-03,-2.00, 0.31, 7.83, 2.11, 1.75, 8.07, repro,
2015-10-04,-5.71, -0.63, 5.36, 2.18, 1.82, 8.27, repro,
2015-10-05,-3.92, -1.16, 12.68, 2.11, 1.74, 8.04, repro,
2015-10-06,-1.40, -0.34, 6.01, 2.14, 1.77, 8.10, repro,
2015-10-07,-2.98, -0.71, 9.03, 2.10, 1.72, 7.96, repro,
2015-10-08,-1.39, -0.83, 10.28, 2.18, 1.82, 8.32, repro,
2015-10-09,0.95, 0.00, 2.22, 2.30, 1.99, 9.16, repro,
2015-10-10,-0.43, -0.43, 10.91, 2.09, 1.71, 7.98, repro,
2015-10-11,-1.17, -0.23, 9.81, 2.12, 1.75, 8.11, repro,
2015-10-12,-1.36, -0.41, 17.52, 2.19, 1.78, 8.32, repro,
2015-10-13,1.14, -1.01, 17.43, 2.25, 1.94, 8.85, repro,
2015-10-14,-0.73, -2.39, 23.14, 2.23, 1.89, 8.80, repro,
2015-10-15,-1.90, 0.16, 4.06, 2.35, 1.96, 9.09, repro,
2015-10-16,-1.08, -1.18, 9.42, 2.21, 1.86, 8.74, repro,
2015-10-17,-1.37, -0.27, 4.22, 2.30, 1.90, 8.83, repro,
2015-10-18,-0.25, 0.65, 20.11, 2.28, 1.90, 9.16, repro,
2015-10-19,-0.15, -0.25, 13.92, 2.18, 1.87, 8.63, repro,
2015-10-20,-2.61, -1.20, 13.33, 2.32, 1.93, 8.99, repro,
2015-10-21,-0.91, -0.78, 9.56, 2.24, 1.87, 8.94, repro,
2015-10-22,-0.97, -1.17, 15.90, 2.23, 1.96, 9.08, repro,
2015-10-23,-0.68, -0.53, 10.47, 2.32, 1.96, 9.32, repro,
2015-10-24,-1.12, -0.76, 9.83, 2.36, 2.07, 9.58, repro,
2015-10-25,-1.22, -0.78, 3.84, 2.36, 1.99, 9.38, repro,
2015-10-26,-0.07, -0.74, 8.64, 2.28, 1.98, 9.24, repro,
2015-10-27,-0.15, 0.37, 7.69, 2.24, 1.96, 9.20, repro,
2015-10-28,-0.58, 0.49, 9.99, 2.30, 1.94, 9.31, repro,
2015-10-29,2.30, -0.54, 15.34, 2.29, 1.93, 9.20, repro,
2015-10-30,-0.88, -1.17, 17.23, 2.45, 2.03, 9.86, repro,
2015-10-31,-0.30, -0.30, 14.44, 2.48, 2.00, 9.45, repro,
2015-11-01,-0.79, 0.75, 13.45, 2.48, 2.05, 9.64, repro,
2015-11-02,1.68, 0.83, 22.61, 2.51, 2.14, 10.28, repro,
2015-11-03,-0.45, -0.53, 11.96, 2.54, 2.14, 10.36, repro,
2015-11-04,-2.09, 1.62, 11.49, 2.47, 2.16, 10.00, repro,
2015-11-05,0.55, -0.18, 15.76, 2.56, 2.06, 9.91, repro,
2015-11-06,0.86, -0.08, 7.67, 2.51, 2.31, 10.50, repro,
2015-11-07,0.08, -1.52, 12.22, 2.59, 2.21, 10.42, repro,
2015-11-08,0.31, -0.72, 9.72, 2.56, 2.11, 10.06, repro,
2015-11-09,-2.03, -1.06, 3.58, 2.59, 2.20, 10.24, repro,
2015-11-10,0.93, -3.00, -0.53, 2.52, 2.17, 10.23, repro,
2015-11-11,-0.05, -0.85, 6.01, 2.56, 2.17, 10.32, repro,
2015-11-12,0.77, -0.41, 7.98, 2.44, 2.12, 9.68, repro,
2015-11-13,-0.29, -0.01, 7.53, 2.50, 2.20, 10.15, repro,
2015-11-14,-0.56, -0.32, 0.55, 3.03, 2.42, 11.41, repro,
2015-11-15,-0.86, 0.53, 5.63, 2.63, 2.24, 10.37, repro,
2015-11-16,0.90, -2.05, 12.41, 2.62, 2.26, 10.47, repro,
2015-11-17,1.84, -0.82, 7.94, 2.71, 2.33, 11.38, repro,
2015-11-18,1.69, -0.34, 9.84, 1.88, 1.59, 7.20, repro,
2015-11-19,0.64, -0.60, 9.17, 1.87, 1.59, 7.18, repro,
2015-11-20,0.98, 0.31, 2.88, 1.88, 1.59, 7.23, repro,
2015-11-21,0.05, -0.69, 4.54, 1.86, 1.60, 7.22, repro,
2015-11-22,1.66, 0.60, 5.83, 1.87, 1.58, 7.15, repro,
2015-11-23,2.29, 0.25, 7.53, 1.89, 1.60, 7.24, repro,
2015-11-24,0.71, 1.18, 8.23, 1.88, 1.60, 7.25, repro,
2015-11-25,0.71, 0.65, 9.27, 1.89, 1.60, 7.23, repro,
2015-11-26,0.72, -0.73, 1.30, 1.87, 1.59, 7.18, repro,
2015-11-27,1.36, -0.53, 3.64, 1.85, 1.58, 7.13, repro,
2015-11-28,1.59, -0.07, 3.43, 1.87, 1.58, 7.17, repro,
2015-11-29,1.93, 0.72, 6.43, 1.89, 1.60, 7.24, repro,
2015-11-30,1.30, 0.24, 1.31, 1.87, 1.60, 7.27, repro,
2015-12-01,1.78, 0.51, -0.52, 1.89, 1.59, 7.21, repro,
2015-12-02,1.16, -0.03, 2.08, 1.88, 1.61, 7.22, repro,
2015-12-03,0.91, 0.69, 3.58, 1.86, 1.58, 7.12, repro,
2015-12-04,0.40, 0.46, 2.68, 1.87, 1.59, 7.19, repro,
2015-12-05,1.20, 0.42, -0.75, 1.86, 1.57, 7.21, repro,
2015-12-06,1.04, 0.88, -1.78, 1.87, 1.59, 7.30, repro,
2015-12-07,1.62, 0.56, 2.01, 1.87, 1.62, 7.31, repro,
2015-12-08,1.90, 1.03, 4.34, 1.89, 1.63, 7.37, repro,
2015-12-09,2.25, 0.93, 5.61, 1.88, 1.62, 7.31, repro,
2015-12-10,1.34, 0.21, 9.60, 1.89, 1.64, 7.33, repro,
2015-12-11,0.19, -0.28, 4.50, 1.89, 1.66, 7.42, repro,
2015-12-12,2.26, -0.58, -2.90, 1.87, 1.61, 7.26, repro,
2015-12-13,1.01, -0.98, 1.77, 1.87, 1.62, 7.31, repro,
2015-12-14,1.35, 2.48, -0.91, 1.91, 1.60, 7.36, repro,
2015-12-15,2.82, -0.25, 10.50, 1.87, 1.57, 7.14, repro,
2015-12-16,0.80, 1.13, 8.71, 1.86, 1.57, 7.10, repro,
2015-12-17,1.21, 1.12, 0.58, 1.91, 1.58, 7.35, repro,
2015-12-18,1.40, 0.79, 0.76, 1.90, 1.57, 7.31, repro,
2015-12-19,1.45, 0.08, 7.21, 1.84, 1.56, 7.11, repro,
2015-12-20,3.34, 0.32, 4.41, 1.86, 1.57, 7.12, repro,
2015-12-21,2.16, 1.27, 3.89, 1.87, 1.55, 7.09, repro,
2015-12-22,2.29, -0.08, 17.55, 1.97, 1.64, 7.62, repro,
2015-12-23,0.40, 3.82, 3.95, 1.94, 1.63, 7.58, repro,
2015-12-24,1.75, -0.00, 8.59, 1.85, 1.56, 7.09, repro,
2015-12-25,1.63, -0.79, 8.68, 1.85, 1.56, 7.08, repro,
2015-12-26,-0.19, -2.02, 5.00, 1.85, 1.56, 7.04, repro,
2015-12-27,0.60, 0.47, -0.44, 1.84, 1.54, 7.03, repro,
2015-12-28,-0.55, 0.15, -0.55, 1.85, 1.56, 7.08, repro,
2015-12-29,1.33, -0.22, 0.00, 1.86, 1.56, 7.11, repro,
2015-12-30,1.22, 0.18, -1.50, 1.84, 1.56, 7.07, repro,
2015-12-31,2.43, 1.18, 0.86, 1.85, 1.56, 7.07, repro,
2016-01-01,0.93, -0.04, 1.36, 1.85, 1.55, 7.08, repro,
2016-01-02,0.04, 1.40, 3.50, 2.01, 1.64, 7.55, repro,
2016-01-03,0.58, 0.81, 0.46, 1.85, 1.56, 7.10, repro,
2016-01-04,0.43, 1.27, 3.01, 1.85, 1.56, 7.10, repro,
2016-01-05,1.52, 0.41, 8.89, 1.85, 1.56, 7.05, repro,
2016-01-06,1.62, 0.30, 4.10, 1.87, 1.56, 7.09, repro,
2016-01-07,0.41, 0.78, 4.93, 1.88, 1.59, 7.18, repro,
2016-01-08,1.15, -2.01, 1.98, 1.91, 1.62, 7.29, repro,
2016-01-09,0.36, 1.47, -11.32, 1.89, 1.62, 7.28, repro,
2016-01-10,1.48, 0.61, -3.40, 1.85, 1.57, 7.08, repro,
2016-01-11,0.65, 0.37, -7.14, 1.86, 1.56, 7.06, repro,
2016-01-12,0.75, 0.76, -4.84, 1.85, 1.55, 7.04, repro,
2016-01-13,0.55, 0.89, 3.28, 1.86, 1.56, 7.07, repro,
2016-01-14,-0.05, -0.01, 1.24, 1.89, 1.61, 7.20, repro,
2016-01-15,2.67, -0.42, -3.32, 2.06, 1.83, 7.83, repro,
2016-01-16,-0.14, -1.20, -10.73, 1.93, 1.59, 7.28, repro,
2016-01-17,0.72, 0.75, -4.78, 1.88, 1.57, 7.11, repro,
2016-01-18,-1.07, 0.40, 4.33, 1.85, 1.55, 7.02, repro,
2016-01-19,0.77, 0.58, -5.96, 1.85, 1.56, 7.05, repro,
2016-01-20,1.94, -0.22, -11.21, 1.85, 1.56, 7.01, repro,
2016-01-21,-0.51, 0.32, -3.00, 2.21, 1.76, 7.98, repro,
2016-01-22,0.90, -0.06, -7.56, 1.88, 1.57, 7.09, repro,
2016-01-23,0.02, 1.37, 1.36, 1.91, 1.60, 7.21, repro,
2016-01-24,-0.13, -1.20, -1.43, 1.86, 1.56, 7.06, repro,
2016-01-25,0.84, -0.53, -4.12, 1.89, 1.58, 7.23, repro,
2016-01-26,1.86, -0.25, -8.02, 1.88, 1.57, 7.19, repro,
2016-01-27,0.22, -0.22, -5.26, 1.96, 1.74, 7.80, repro,
2016-01-28,0.25, -0.96, -2.50, 1.89, 1.58, 7.24, repro,
2016-01-29,0.81, -1.36, -5.85, 1.94, 1.59, 7.36, repro,
2016-01-30,2.30, -0.55, 6.20, 1.88, 1.57, 7.17, repro,
2016-01-31,3.58, -0.62, 15.52, 1.97, 1.63, 7.47, repro,
2016-02-01,2.93, -0.60, 11.78, 1.89, 1.59, 7.22, repro,
2016-02-02,2.12, -1.22, 1.33, 1.92, 1.64, 7.42, repro,
2016-02-03,-0.19, -0.17, -8.34, 1.89, 1.59, 7.23, repro,
2016-02-04,0.51, -0.20, -5.67, 1.87, 1.58, 7.20, repro,
2016-02-05,0.94, -0.14, -11.08, 1.87, 1.57, 7.17, repro,
2016-02-06,0.26, 0.97, -9.12, 1.88, 1.58, 7.20, repro,
2016-02-07,0.24, 0.34, -10.68, 1.88, 1.57, 7.15, repro,
2016-02-08,0.84, 1.51, -8.46, 1.89, 1.57, 7.16, repro,
2016-02-09,1.07, 0.17, -5.83, 1.87, 1.57, 7.16, repro,
2016-02-10,0.36, 0.31, -8.43, 1.87, 1.57, 7.17, repro,
2016-02-11,1.67, 0.94, -3.28, 1.89, 1.58, 7.18, repro,
2016-02-12,2.02, 1.36, -6.48, 1.90, 1.58, 7.26, repro,
2016-02-13,0.22, 0.11, -8.80, 1.88, 1.57, 7.13, repro,
2016-02-14,0.20, 1.32, -2.56, 1.88, 1.56, 7.15, repro,
2016-02-15,0.47, 0.47, 2.87, 1.87, 1.56, 7.13, repro,
2016-02-16,0.76, -0.32, -1.76, 1.94, 1.68, 7.48, repro,
2016-02-17,0.26, 0.95, 5.90, 1.90, 1.58, 7.20, repro,
2016-02-18,4.66, 1.00, 18.81, 1.92, 1.63, 7.32, repro,
2016-02-19,0.07, -0.58, 1.78, 1.92, 1.60, 7.22, repro,
2016-02-20,0.87, 0.70, 0.48, 1.90, 1.59, 7.31, repro,
2016-02-21,1.03, 0.11, -3.62, 1.87, 1.56, 7.08, repro,
2016-02-22,0.09, 0.71, -7.50, 1.88, 1.58, 7.15, repro,
2016-02-23,-0.10, -0.91, -3.07, 1.88, 1.57, 7.11, repro,
2016-02-24,-0.59, 0.67, -3.54, 2.14, 1.83, 8.05, repro,
2016-02-25,0.36, 1.00, -1.74, 1.88, 1.57, 7.11, repro,
2016-02-26,1.52, 0.76, -2.66, 1.93, 1.63, 7.44, repro,
2016-02-27,2.19, 0.02, -1.89, 1.89, 1.58, 7.19, repro,
2016-02-28,-1.26, -0.41, -1.49, 1.91, 1.62, 7.26, repro,
2016-02-29,-0.50, 0.58, -2.75, 1.90, 1.62, 7.26, repro,
2016-03-01,1.10, 0.61, 2.72, 1.89, 1.59, 7.16, repro,
2016-03-02,0.37, 0.30, -0.68, 1.88, 1.58, 7.12, repro,
2016-03-03,-0.35, -0.41, -4.22, 1.88, 1.58, 7.13, repro,
2016-03-04,0.21, 0.16, -1.40, 1.95, 1.67, 7.44, repro,
2016-03-05,0.50, 1.62, 0.03, 1.94, 1.65, 7.34, repro,
2016-03-06,3.93, 1.27, 11.81, 1.92, 1.64, 7.43, repro,
2016-03-07,-1.07, 0.52, -3.73, 1.94, 1.65, 7.39, repro,
2016-03-08,0.15, -0.52, -2.41, 1.96, 1.67, 7.41, repro,
2016-03-09,2.05, 0.04, -6.43, 1.91, 1.61, 7.23, repro,
2016-03-10,-0.79, 0.62, -3.05, 1.85, 1.57, 6.95, repro,
2016-03-11,-2.12, 2.34, 7.40, 1.86, 1.59, 6.99, repro,
2016-03-12,-0.05, -0.68, 2.73, 1.90, 1.64, 7.16, repro,
2016-03-13,1.40, 0.76, -3.69, 1.85, 1.56, 6.95, repro,
2016-03-14,0.54, 2.34, 5.56, 1.91, 1.63, 7.13, repro,
2016-03-15,-0.57, -0.50, -5.83, 1.87, 1.61, 7.02, repro,
2016-03-16,-0.38, 1.54, -3.68, 1.91, 1.67, 7.18, repro,
2016-03-17,0.46, 1.13, -0.05, 1.93, 1.67, 7.34, repro,
2016-03-18,-0.18, 1.12, -3.57, 1.96, 1.67, 7.38, repro,
2016-03-19,0.88, 0.81, -1.63, 1.93, 1.65, 7.34, repro,
2016-03-20,-0.78, 0.90, -5.06, 1.88, 1.56, 6.99, repro,
2016-03-21,0.06, 0.82, -6.59, 1.86, 1.57, 6.99, repro,
2016-03-22,-1.38, 5.14, 0.76, 1.95, 1.63, 7.20, repro,
2016-03-23,0.94, -0.65, -9.04, 1.84, 1.56, 6.91, repro,
2016-03-24,-0.86, 1.13, -3.83, 1.87, 1.56, 6.95, repro,
2016-03-25,-0.35, 1.43, 0.86, 1.87, 1.61, 7.03, repro,
2016-03-26,-1.08, 1.38, 1.61, 1.86, 1.56, 6.94, repro,
2016-03-27,-0.89, 1.44, 0.85, 1.88, 1.61, 7.09, repro,
2016-03-28,-1.47, 1.11, -0.11, 1.88, 1.58, 7.13, repro,
2016-03-29,-2.27, 4.56, -1.62, 1.89, 1.58, 7.07, repro,
2016-03-30,-2.08, 0.62, 2.61, 1.85, 1.59, 6.96, repro,
2016-03-31,-1.44, 1.70, 1.84, 1.89, 1.64, 7.15, repro,
2016-04-01,-1.69, 2.37, -2.37, 1.85, 1.57, 6.94, repro,
2016-04-02,-0.18, 2.70, 2.39, 1.83, 1.56, 6.87, repro,
2016-04-03,-1.06, 1.35, -1.76, 1.85, 1.59, 7.00, repro,
2016-04-04,0.17, 1.02, -2.36, 1.84, 1.58, 6.91, repro,
2016-04-05,-0.97, 1.53, -2.96, 1.86, 1.61, 7.09, repro,
2016-04-06,-0.66, 1.96, -3.16, 1.85, 1.59, 6.99, repro,
2016-04-07,-0.74, 1.24, 0.59, 1.86, 1.61, 7.05, repro,
2016-04-08,-1.15, 1.04, -1.88, 1.83, 1.58, 6.94, repro,
2016-04-09,0.02, 1.48, 1.04, 1.85, 1.60, 6.99, repro,
2016-04-10,-1.41, 1.45, 0.27, 1.87, 1.60, 7.04, repro,
2016-04-11,-2.44, 2.76, -0.40, 1.86, 1.60, 7.00, repro,
2016-04-12,-0.59, 1.36, -7.10, 1.85, 1.60, 7.01, repro,
2016-04-13,0.56, 2.14, -6.65, 1.86, 1.59, 6.95, repro,
2016-04-14,0.85, 3.04, 6.82, 1.88, 1.60, 7.07, repro,
2016-04-15,3.43, -0.79, -2.50, 2.27, 2.02, 8.61, repro,
2016-04-16,-0.83, 1.18, 0.74, 1.85, 1.60, 7.04, repro,
2016-04-17,0.22, 1.97, -1.27, 1.86, 1.60, 7.07, repro,
2016-04-18,0.53, 1.42, -2.97, 1.85, 1.59, 6.98, repro,
2016-04-19,1.40, 1.51, -1.59, 1.89, 1.61, 7.18, repro,
2016-04-20,1.32, 1.82, -2.04, 1.90, 1.62, 7.25, repro,
2016-04-21,-0.86, 2.20, -4.95, 1.86, 1.60, 7.01, repro,
2016-04-22,-1.84, 1.31, 3.34, 1.86, 1.60, 7.04, repro,
2016-04-23,1.13, 0.12, 0.67, 1.87, 1.61, 7.13, repro,
2016-04-24,0.33, 2.66, 3.68, 1.83, 1.58, 6.92, repro,
2016-04-25,0.73, 2.26, -1.74, 1.86, 1.59, 6.99, repro,
2016-04-26,-0.42, 1.76, 6.80, 1.87, 1.59, 7.01, repro,
2016-04-27,-1.56, 0.82, 3.77, 1.85, 1.58, 7.01, repro,
2016-04-28,0.71, 1.20, 3.41, 1.90, 1.66, 7.29, repro,
2016-04-29,-0.96, 1.31, 3.65, 1.85, 1.60, 7.07, repro,
2016-04-30,0.08, 3.37, -8.28, 1.90, 1.69, 7.36, repro,
2016-05-01,-0.11, 0.81, -5.29, 1.88, 1.61, 7.07, repro,
2016-05-02,2.11, -0.19, 0.04, 1.88, 1.60, 7.09, repro,
2016-05-03,-1.54, 1.98, 2.27, 1.90, 1.63, 7.26, repro,
2016-05-04,-1.78, -1.52, -1.09, 1.90, 1.63, 7.25, repro,
2016-05-05,0.40, -0.10, -0.22, 1.97, 1.63, 7.43, repro,
2016-05-06,0.67, 0.04, -1.86, 1.93, 1.60, 7.25, repro,
2016-05-07,-0.12, 0.98, 3.81, 1.89, 1.62, 7.12, repro,
2016-05-08,-1.49, 0.95, 4.89, 1.92, 1.64, 7.21, repro,
2016-05-09,-0.36, 1.47, -0.43, 1.85, 1.59, 7.00, repro,
2016-05-10,0.67, 2.00, -0.78, 1.84, 1.59, 6.98, repro,
2016-05-11,0.51, 0.61, -8.21, 1.86, 1.60, 7.05, repro,
2016-05-12,-0.98, 1.31, -4.37, 1.84, 1.59, 6.98, repro,
2016-05-13,-0.70, 0.81, -0.55, 1.85, 1.58, 6.97, repro,
2016-05-14,-4.54, 2.98, -5.06, 1.88, 1.60, 7.11, repro,
2016-05-15,-0.51, 3.09, 1.02, 1.87, 1.62, 7.13, repro,
2016-05-16,3.47, 0.21, 3.27, 1.86, 1.60, 7.09, repro,
2016-05-17,-0.44, 0.58, -0.24, 1.85, 1.57, 6.95, repro,
2016-05-18,-1.36, 1.94, -6.44, 1.85, 1.59, 7.00, repro,
2016-05-19,-0.99, 0.79, -0.28, 1.88, 1.60, 7.13, repro,
2016-05-20,2.02, 2.06, 4.92, 1.85, 1.58, 7.00, repro,
2016-05-21,-0.51, 1.31, -2.94, 1.85, 1.58, 6.95, repro,
2016-05-22,-1.14, 0.27, 1.23, 1.83, 1.57, 6.90, repro,
2016-05-23,-1.18, 0.67, -1.46, 1.86, 1.60, 7.06, repro,
2016-05-24,-1.40, 1.89, -5.36, 1.88, 1.62, 7.10, repro,
2016-05-25,-0.05, 1.61, -4.13, 1.85, 1.58, 6.95, repro,
2016-05-26,1.24, 1.31, 2.02, 1.87, 1.61, 7.09, repro,
2016-05-27,-1.51, 2.37, 5.12, 1.95, 1.61, 7.22, repro,
2016-05-28,-0.50, 1.61, 2.09, 1.87, 1.60, 7.04, repro,
2016-05-29,-2.89, 2.45, -4.03, 2.15, 1.71, 7.96, repro,
2016-05-30,-0.76, 1.55, -6.72, 1.84, 1.57, 6.94, repro,
2016-05-31,-0.05, 1.52, -0.34, 1.89, 1.63, 7.06, repro,